Hourly Weather Roundup
Issued by NWS Central Illinois

Home | Current Version | Previous Version | Text Only | Print | Product List | Glossary On
Versions: 1 2 3 4 5 6 7 8 9 10 11 12 13 14 15 16 17 18 19 20 21 22 23 24 25 26 27 28 29 30 31 32 33 34 35 36 37 38 39 40 41 42 43 44 45 46 47 48 49 50
000
NZUS43 KILX 031310
HWRILX

AREA WEATHER ROUNDUP
NATIONAL WEATHER SERVICE, LINCOLN IL
800 AM CDT SUN MAY 03 2015


CITY           SKY/WX    TMP DP  RH WIND       PRES   REMARKS
BLOOMINGTON    PTSUNNY   63  49  60 S10       30.02S
CHAMPAIGN      MOSUNNY   67  46  47 S15       30.03S
DANVILLE       PTSUNNY   61  49  65 S6        30.03S
DECATUR        MOSUNNY   65  48  54 S10       30.03R
EFFINGHAM      MOSUNNY   64  45  49 S7        30.07R
FLORA          PTSUNNY   61  50  68 S7        30.07R
GALESBURG      CLOUDY    61  50  67 S7        29.96R
JACKSONVILLE   CLOUDY    65  47  51 S9        29.99R
LACON          CLOUDY    62  46  55 S8        29.96S
LAWRENCEVILLE  PTSUNNY   65  50  58 S10       30.08S
LITCHFIELD     PTSUNNY   61  46  57 S9        30.03R
$$


CITY           SKY/WX    TMP DP  RH WIND       PRES   REMARKS
LINCOLN        MOSUNNY   63  47  54 S9        29.99S
MACOMB         CLOUDY    61  47  61 S10       29.98R
MATTOON        MOSUNNY   64  48  56 S7        30.05R
MT CARMEL AP   PTSUNNY   64  48  55 S7        30.08S
OLNEY-NOBLE AP PTSUNNY   61  50  67 S6        30.08R
PARIS          SUNNY     65  50  59 S9        30.07S
PEORIA         CLOUDY    64  47  53 S12       29.98S
PONTIAC        CLOUDY    64  49  57 S13G18    30.00S
RANTOUL        PTSUNNY   67  47  49 S9        30.03S
ROBINSON       MOSUNNY   65  50  58 S9        30.09R
SPRINGFIELD    PTSUNNY   66  47  50 S14       30.00R
TAYLORVILLE    MOSUNNY   63  46  55 S12       30.02S
$$

...REGIONAL REPORTS...


CITY           SKY/WX    TMP DP  RH WIND       PRES   REMARKS
CHICAGO O`HARE PTSUNNY   64  45  49 S12       29.97S
KANKAKEE       MOSUNNY   65  48  55 S13       30.01F
MOLINE         CLOUDY    59  52  77 S6        29.93R
MOUNT VERNON   MOSUNNY  N/A N/A N/A S3        30.07S
PITTSFIELD     MOSUNNY   62  48  60 S7        30.00R
QUINCY         MOSUNNY   63  48  58 S12       29.97R
ROCKFORD       CLOUDY    63  44  50 S12       29.96S
$$


CITY           SKY/WX    TMP DP  RH WIND       PRES   REMARKS
BURLINGTON     MOSUNNY   61  49  64 S13       29.92S
CEDAR RAPIDS   CLOUDY    61  52  72 S17       29.85F
DES MOINES     CLOUDY    63  55  75 SW10      29.80R
KIRKSVILLE     PTSUNNY   62  53  72 S13       29.93R
OTTUMWA        LGT RAIN  58  54  86 S21       29.82F
ST LOUIS       PTSUNNY   67  45  45 S9        30.02R
$$


CITY           SKY/WX    TMP DP  RH WIND       PRES   REMARKS
TERRE HAUTE    MOSUNNY   63  50  62 S8        30.08R
EVANSVILLE     FAIR      61  51  70 CALM      30.10S
INDIANAPOLIS   CLOUDY    61  47  59 S7        30.08R
LAFAYETTE      CLOUDY    59  48  67 S3        30.05F
MADISON        CLOUDY    62  47  57 S10       29.90F
MILWAUKEE      PTSUNNY   63  43  48 S10       29.94S
$$




USA.gov is the U.S. government's official web portal to all federal, state and local government web resources and services.